Weather History for Goshen, IN

Change the Weather History Date:

Friday, December 28, 2012

  Actual Average Record
Temperature  
Mean Temperature 29 °F -  
Max Temperature 30 °F 34 °F 65 °F (1984)
Min Temperature 28 °F 19 °F -17 °F (1950)
Degree Days  
Heating Degree Days 36    
Moisture  
Dew Point 25 °F    
Average Humidity 85    
Maximum Humidity 93    
Minimum Humidity 79    
Precipitation  
Precipitation 0.05 in - - ()
Sea Level Pressure  
Sea Level Pressure 30.08 in    
Wind  
Wind Speed 3 mph (SE)    
Max Wind Speed 8 mph    
Max Gust Speed -    
Visibility 4 miles    
Events Fog , Snow    
Averages and records for this station are not official NWS values.
T = Trace of Precipitation, MM = Missing Value Source: NWS Daily Summary

Daily Weather History Graph

Daily Weather History Graph

Search for Another Location

Airport:

Trip Planner

Search our weather history database for the weather conditions in past years. The results will help you decide how hot, cold, wet, or windy it might be!

Date:

Astronomy

Dec. 28, 2012 Rise Set
Actual Time 8:09 AM EST 5:21 PM EST
Civil Twilight 7:37 AM EST 5:52 PM EST
Nautical Twilight 7:02 AM EST 6:27 PM EST
Astronomical Twilight 6:29 AM EST 7:01 PM EST
Moon 5:57 PM EST (12/28) 8:02 AM EST (12/28)
Length of Visible Light 10h 14m
Length of Day
9h 11m
Full, 100% of the Moon is Illuminated
Dec 28
Full
Jan 4
Last Quarter
Jan 11
New
Jan 18
First Quarter
Jan 26
Full

Hourly Weather History & Observations

Time (EST) Temp. Windchill Dew Point Humidity Pressure Visibility Wind Dir Wind Speed Gust Speed Precip Events Conditions
12:53 AM 28.0 °F - 24.1 °F 85% 30.15 in 9.0 mi Calm Calm - N/A   Overcast
1:14 AM 28.4 °F 24.6 °F 24.8 °F 86% 30.12 in 8.0 mi SSW 3.5 mph - N/A   Overcast
1:53 AM 28.9 °F - 24.1 °F 82% 30.15 in 8.0 mi Calm Calm - N/A   Overcast
2:04 AM 28.4 °F - 24.8 °F 86% 30.12 in 8.0 mi Calm Calm - N/A   Overcast
2:53 AM 28.9 °F 25.2 °F 25.0 °F 85% 30.15 in 7.0 mi SSW 3.5 mph - N/A   Overcast
3:37 AM 28.4 °F - 24.8 °F 86% 30.12 in 5.0 mi Calm Calm - N/A   Overcast
3:53 AM 28.9 °F - 24.1 °F 82% 30.14 in 5.0 mi Calm Calm - N/A   Haze
4:53 AM 28.0 °F 24.2 °F 24.1 °F 85% 30.13 in 5.0 mi South 3.5 mph - N/A   Overcast
5:49 AM 28.4 °F 24.6 °F 24.8 °F 86% 30.09 in 4.0 mi SE 3.5 mph - N/A   Mostly Cloudy
6:53 AM 28.0 °F - 24.1 °F 85% 30.12 in 4.0 mi Calm Calm - N/A   Overcast
7:53 AM 28.0 °F - 25.0 °F 88% 30.12 in 4.0 mi Calm Calm - N/A   Overcast
8:53 AM 28.9 °F 25.2 °F 25.0 °F 85% 30.14 in 3.0 mi SE 3.5 mph - N/A   Overcast
9:14 AM 28.4 °F 24.6 °F 24.8 °F 86% 30.11 in 1.8 mi SSE 3.5 mph - 0.00 in Snow Light Snow
9:24 AM 28.4 °F 22.2 °F 24.8 °F 86% 30.11 in 0.5 mi SSE 5.8 mph - 0.00 in Fog , Snow Light Snow
9:49 AM 28.4 °F 23.3 °F 24.8 °F 86% 30.13 in 0.8 mi South 4.6 mph - 0.00 in Snow Light Snow
9:53 AM 28.9 °F 25.2 °F 25.0 °F 85% 30.16 in 0.8 mi South 3.5 mph - 0.00 in Snow Light Snow
10:02 AM 28.4 °F 24.6 °F 26.6 °F 93% 30.14 in 0.5 mi SW 3.5 mph - 0.01 in Fog , Snow Snow
10:18 AM 28.4 °F 24.6 °F 26.6 °F 93% 30.13 in 0.5 mi South 3.5 mph - 0.02 in Fog , Snow Snow
10:46 AM 28.4 °F 20.4 °F 26.6 °F 93% 30.14 in 0.8 mi South 8.1 mph - 0.04 in Snow Light Snow
10:53 AM 28.9 °F 21.9 °F 26.1 °F 89% 30.16 in 1.5 mi South 6.9 mph - 0.04 in Snow Light Snow
11:03 AM 28.4 °F 21.2 °F 26.6 °F 93% 30.12 in 2.0 mi SSE 6.9 mph - 0.00 in Snow Light Snow
11:09 AM 30.2 °F 24.3 °F 26.6 °F 86% 30.12 in 1.2 mi SE 5.8 mph - 0.00 in Snow Light Snow
11:19 AM 30.2 °F 25.4 °F 26.6 °F 86% 30.10 in 0.5 mi ESE 4.6 mph - 0.01 in Fog , Snow Snow
11:23 AM 30.2 °F 24.3 °F 26.6 °F 86% 30.10 in 0.8 mi SE 5.8 mph - 0.01 in Snow Light Snow
11:34 AM 30.2 °F 23.4 °F 26.6 °F 86% 30.10 in 1.0 mi SE 6.9 mph - 0.01 in Snow Light Snow
11:53 AM 30.0 °F 25.2 °F 26.1 °F 85% 30.12 in 2.5 mi South 4.6 mph - 0.01 in Snow Light Snow
12:03 PM 30.2 °F 23.4 °F 26.6 °F 86% 30.07 in 4.0 mi SE 6.9 mph - 0.00 in Snow Light Snow
12:26 PM 30.2 °F 23.4 °F 26.6 °F 86% 30.06 in 6.0 mi SE 6.9 mph - 0.00 in   Overcast
12:53 PM 30.9 °F 24.3 °F 26.1 °F 82% 30.07 in 8.0 mi SE 6.9 mph - 0.00 in   Overcast
1:53 PM 30.9 °F 25.2 °F 25.0 °F 79% 30.03 in 7.0 mi ESE 5.8 mph - N/A   Overcast
2:53 PM 30.0 °F 22.4 °F 24.1 °F 79% 30.02 in 7.0 mi SE 8.1 mph - N/A   Overcast
3:53 PM 30.0 °F 22.4 °F 25.0 °F 82% 29.99 in 6.0 mi ESE 8.1 mph - N/A   Haze
4:53 PM 30.0 °F 23.2 °F 24.1 °F 79% 30.01 in 7.0 mi SE 6.9 mph - N/A   Overcast
5:53 PM 30.0 °F 23.2 °F 24.1 °F 79% 30.00 in 8.0 mi SE 6.9 mph - N/A   Overcast
6:53 PM 30.0 °F 24.1 °F 24.1 °F 79% 29.99 in 7.0 mi ESE 5.8 mph - N/A   Overcast
8:53 PM 28.9 °F 22.8 °F 25.0 °F 85% 29.96 in 6.0 mi East 5.8 mph - N/A   Overcast
9:53 PM 28.9 °F 22.8 °F 24.1 °F 82% 29.94 in 5.0 mi East 5.8 mph - N/A   Haze
10:21 PM 28.4 °F 22.2 °F 24.8 °F 86% 29.90 in 4.0 mi East 5.8 mph - N/A   Haze
10:53 PM 28.9 °F 22.8 °F 24.1 °F 82% 29.93 in 4.0 mi East 5.8 mph - N/A   Haze
11:53 PM 28.9 °F 23.9 °F 24.1 °F 82% 29.91 in 4.0 mi East 4.6 mph - N/A   Haze